Meteopurmerend
purmerend
Purmerend - Baaienwijk



My webcam  My webcam


Onweer radar Meer informatie blitzortung!


Regen radar Meer informatie rain snow radar


Bezoek onze andere website:

CandyAppleRed WebdesignWebdesign Purmerend Candy Apple Red

MeteopurmerendBlog

Template documentation
and downloads



Het weer levert geen direct gevaar op.    Er zijn geen waarschuwingen afgegeven.

15 daagse weersverwachting Besançon, Besancon (FR)

  • Overzicht
  • Per uur
  • 15 dagen
  • Extra
  • Vergelijk
  • Kaarten
  • Dagkaart
  • Meer »
  • Info
  • Statistieken
  • Directe link
    Temp 6h Neerslag Wind  
 07:22     18:16    Daglengte: 10:54 Vandaag
13:00
9.5 mm
6
19:00
8.7 mm
4
 07:21     18:17    Daglengte: 10:56 Morgen
01:00
9.0 mm
4
07:00
 
5
13:00
6.6 mm
11
19:00
14.2 mm
8
 07:19     18:19    Daglengte: 11:00 Vrijdag 28 Feb
01:00
13.5 mm
3
07:00
 
2
13:00
 
2
19:00
6.4 mm
4
 07:17     18:20    Daglengte: 11:03 Zaterdag 29 Feb
01:00
26.0 mm
5
Locatie info
Region: Bourgogne-Franche-Comté
Latitude: 47.2428°N
Longitude: 6.0254°E
300 masl
Postcode: 25000
Temp/Neerslag /Baro Onweer/DauwpuntSneeuw
    Temp Baro 1h Neerslag Dauwpunt Wind UV BewolkingSneeuw  
 07:22     18:16    Daglengte: 10:54 Vandaag
08:00
Voelt als: -3.1°
1005.1 hPa 1.8 mm
82%
0.6°
5
Windvlaag: 3.6 m/s
81%2 cm
09:00
Voelt als: -2.6°
1005.9 hPa 1.2 mm
82%
0.3°
6
Windvlaag: 3.5 m/s
77%2 cm
10:00
Voelt als: -2.0°
1006.8 hPa 1.5 mm
82%
-0.1°
6
Windvlaag: 3.1 m/s
80%2 cm
11:00
Voelt als: -1.5°
1007.3 hPa 1.5 mm
82%
-0.1°
6
Windvlaag: 3 m/s
87%2 cm warningclass
12:00
Voelt als: -1.6°
1007.7 hPa 2.1 mm
82%
-0.5°
6
Windvlaag: 2.1 m/s
84%2 cm warningclass
13:00
Voelt als: -0.7°
1007.8 hPa 1.4 mm
82%
-0.8°
6
Windvlaag: 1.5 m/s
83%2 cm
14:00
Voelt als: -0.4°
1008.0 hPa 1.5 mm
82%
-1.3°
6
Windvlaag: 1.5 m/s
64%2 cm
15:00
Voelt als: 0.5°
1008.4 hPa 1.1 mm
82%
-0.0°
6
Windvlaag: 1.4 m/s
73%2 cm
16:00
Voelt als: 0.3°
1008.9 hPa 1.1 mm
82%
0.2°
6
Windvlaag: 1.8 m/s
78%2 cm
17:00
Voelt als: -0.1°
1009.6 hPa 1.5 mm
82%
-0.1°
5
Windvlaag: 1.9 m/s
64%1 cm
18:00
Voelt als: -0.6°
1010.5 hPa 1.8 mm
82%
-0.6°
5
Windvlaag: 2.7 m/s
65%1 cm
19:00
Voelt als: -1.8°
1011.9 hPa 1.8 mm
82%
-0.4°
4
Windvlaag: 1.9 m/s
50%3 cm
20:00
Voelt als: -1.9°
1013.0 hPa 1.8 mm
82%
-0.8°
4
Windvlaag: 3.1 m/s
21%3 cm
21:00
Voelt als: -2.2°
1013.7 hPa 1.7 mm
82%
-0.5°
4
Windvlaag: 3.1 m/s
36%3 cm
22:00
Voelt als: -2.6°
1014.5 hPa 1.7 mm
82%
-0.4°
4
Windvlaag: 3.2 m/s
45%3 cm
23:00
Voelt als: -2.5°
1014.7 hPa 1.7 mm
82%
-0.3°
4
Windvlaag: 3.1 m/s
40%3 cm
 07:21     18:17    Daglengte: 10:56 Morgen
00:00
Voelt als: -2.6°
1014.9 hPa 2.2 mm
82%
-0.3°
4
Windvlaag: 3.4 m/s
40%3 cm
01:00
Voelt als: -2.5°
1014.9 hPa
77%
-0.5°
4
Windvlaag: 3.5 m/s
62%3 cm
02:00
Voelt als: -2.8°
1015.0 hPa
37%
-0.9°
4
Windvlaag: 3.6 m/s
44%3 cm
03:00
Voelt als: -3.0°
1014.7 hPa
68%
-1.0°
5
Windvlaag: 3.8 m/s
63%3 cm
04:00
Voelt als: -3.1°
1013.8 hPa
24%
-0.9°
5
Windvlaag: 4 m/s
74%3 cm
05:00
Voelt als: -3.1°
1013.3 hPa
14%
-0.9°
5
Windvlaag: 4.1 m/s
67%3 cm
06:00
Voelt als: -3.1°
1012.6 hPa
14%
-1.5°
5
Windvlaag: 4.2 m/s
79%3 cm
07:00
Voelt als: -2.9°
1011.5 hPa
14%
-1.8°
5
Windvlaag: 4.5 m/s
89%3 cm
08:00
Voelt als: -2.7°
1010.2 hPa
14%
-2.0°
5
Windvlaag: 4.9 m/s
91%3 cm
09:00
Voelt als: -2.0°
1008.6 hPa
15%
-2.3°
6
Windvlaag: 5.6 m/s
89%3 cm
10:00
Voelt als: -1.1°
1006.5 hPa
18%
-1.5°
6
Windvlaag: 6.8 m/s
88%2 cm
11:00
Voelt als: -1.0°
1003.7 hPa 2.1 mm
72%
-1.4°
8
Windvlaag: 7.8 m/s
91%2 cm
12:00
Voelt als: -1.6°
1001.5 hPa 2.2 mm
82%
0.3°
10
Windvlaag: 9.3 m/s
89%2 cm
13:00
Voelt als: -1.1°
1000.0 hPa 2.3 mm
82%
1.4°
11
Windvlaag: 9.8 m/s
91%2 cm
14:00
Voelt als: -0.6°
999.2 hPa 2.4 mm
82%
2.6°
11
Windvlaag: 9.5 m/s
91%2 cm
15:00
Voelt als: 0.3°
999.1 hPa 2.8 mm
82%
3.0°
11
Windvlaag: 9.1 m/s
91%2 cm
16:00
Voelt als: 1.4°
999.0 hPa 2.1 mm
82%
3.8°
11
Windvlaag: 8.3 m/s
84%2 cm
17:00
Voelt als: 2.2°
999.7 hPa 2.0 mm
82%
4.2°
10
Windvlaag: 8.3 m/s
86%2 cm
18:00
Voelt als: 2.4°
1001.4 hPa 2.4 mm
82%
5.2°
10
Windvlaag: 7.4 m/s
88%2 cm
19:00
Voelt als: 2.2°
1005.0 hPa 2.5 mm
82%
4.5°
8
Windvlaag: 5.5 m/s
58%2 cm
20:00
Voelt als: 0.9°
1008.1 hPa 3.1 mm
82%
3.1°
7
Windvlaag: 1.5 m/s
67%2 cm
21:00
Voelt als: 0.6°
1010.6 hPa 2.1 mm
82%
2.1°
5
Windvlaag: 1.7 m/s
66%2 cm
22:00
Voelt als: 0.0°
1012.5 hPa 2.2 mm
80%
1.7°
5
Windvlaag: 1.8 m/s
54%2 cm
23:00
Voelt als: -0.4°
1014.2 hPa 3.1 mm
82%
1.4°
5
Windvlaag: 1.5 m/s
57%2 cm
 07:19     18:19    Daglengte: 11:00 Vrijdag 28 Feb
00:00
Voelt als: -0.7°
1015.6 hPa 3.1 mm
81%
0.6°
4
Windvlaag: 1.2 m/s
62%2 cm
01:00
Voelt als: -1.0°
1016.9 hPa
28%
0.5°
3
Windvlaag: 1.6 m/s
46%2 cm
02:00
Voelt als: -1.5°
1017.9 hPa
16%
0.0°
3
Windvlaag: 1.7 m/s
39%2 cm
03:00
Voelt als: -1.3°
1018.7 hPa
20%
-0.1°
3
Windvlaag: 1.4 m/s
38%1 cm
04:00
Voelt als: -1.8°
1019.5 hPa
33%
-0.2°
2
Windvlaag: 1.6 m/s
44%1 cm
05:00
Voelt als: -2.1°
1019.8 hPa
31%
-0.3°
2
Windvlaag: 2.1 m/s
34%1 cm
06:00
Voelt als: -2.5°
1020.5 hPa
22%
-0.5°
2
Windvlaag: 2.1 m/s
43%1 cm
07:00
Voelt als: -2.8°
1021.0 hPa
22%
-0.6°
2
Windvlaag: 1.9 m/s
42%1 cm
08:00
Voelt als: -2.2°
1021.4 hPa
21%
-0.4°
3
Windvlaag: 1.8 m/s
64%1 cm
09:00
Voelt als: -0.9°
1021.5 hPa
21%
-0.8°
3
Windvlaag: 1.7 m/s
67%1 cm
10:00
Voelt als: 1.3°
1021.1 hPa
21%
-1.9°
2
Windvlaag: 1.7 m/s
58%1 cm
11:00
Voelt als: 3.1°
1020.2 hPa
21%
-2.1°
2
Windvlaag: 1.8 m/s
69%1 cm
12:00
Voelt als: 4.4°
1019.6 hPa
22%
-3.1°
2
Windvlaag: 1.3 m/s
34%1 cm
13:00
Voelt als: 5.4°
1018.8 hPa
21%
-4.1°
2
Windvlaag: 1.7 m/s
58%1 cm
14:00
Voelt als: 5.4°
1017.7 hPa
21%
-4.6°
3
Windvlaag: 2.2 m/s
76%1 cm
15:00
Voelt als: 5.1°
1017.0 hPa
92%
-4.5°
3
Windvlaag: 2.7 m/s
98%1 cm
16:00
Voelt als: 5.6°
1016.4 hPa
100%
-3.7°
2
Windvlaag: 2.8 m/s
78%1 cm
17:00
Voelt als: 4.9°
1015.8 hPa 3.2 mm
100%
-2.6°
3
Windvlaag: 3.1 m/s
94%1 cm
18:00
Voelt als: 3.5°
1015.5 hPa 3.2 mm
100%
-2.4°
3
Windvlaag: 4.6 m/s
92%1 cm
19:00
Voelt als: 2.3°
1015.2 hPa
100%
-2.3°
4
Windvlaag: 5.6 m/s
96%1 cm
20:00
Voelt als: 3.4°
1015.1 hPa 5.2 mm
100%
-1.0°
5
Windvlaag: 11.4 m/s
98%1 cm
21:00
Voelt als: 4.3°
1014.6 hPa 5.2 mm
100%
0.2°
6
Windvlaag: 11.8 m/s
98%1 cm
22:00
Voelt als: 5.2°
1014.1 hPa 5.2 mm
98%
1.0°
5
Windvlaag: 11.1 m/s
94%1 cm
23:00
Voelt als: 5.6°
1013.5 hPa
100%
1.4°
5
Windvlaag: 10.7 m/s
96%1 cm
 07:17     18:20    Daglengte: 11:03 Zaterdag 29 Feb
00:00
Voelt als: 5.9°
1012.9 hPa 5.2 mm
100%
1.8°
5
Windvlaag: 10.4 m/s
98%1 cm
01:00
Voelt als: 6.4°
1012.1 hPa 5.2 mm
100%
2.3°
5
Windvlaag: 4.8 m/s
99%1 cm
02:00
Voelt als: 6.5°
1010.2 hPa
47%
2.7°
5
Windvlaag: 13.8 m/s
92%1 cm
03:00
Voelt als: 6.3°
1009.0 hPa
80%
2.9°
5
Windvlaag: 13.2 m/s
91%1 cm
04:00
Voelt als: 6.5°
1007.7 hPa 5.3 mm
95%
3.2°
5
Windvlaag: 13.3 m/s
96%1 cm
05:00
Voelt als: 6.6°
1006.6 hPa
40%
3.7°
5
Windvlaag: 13.1 m/s
94%1 cm
06:00
Voelt als: 6.7°
1005.6 hPa
21%
4.2°
5
Windvlaag: 13.6 m/s
85%1 cm
07:00
10°
Voelt als: 6.8°
1004.4 hPa
21%
4.5°
5
Windvlaag: 2.3 m/s
84%1 cm
Temp/Neerslag /Baro Onweer/DauwpuntSneeuw
    Temp Baro Neerslag Dauwpunt Wind BewolkingSneeuw  
 07:22     18:16    Daglengte: 10:54 Vandaag
10:00
Voelt als: -2.0°
1006.8 hPa 4.5 mm -0.1°
6
80%2 cm
13:00
Voelt als: -0.7°
1007.8 hPa 5.0 mm -0.8°
6
83%2 cm
16:00
Voelt als: 0.3°
1008.9 hPa 3.7 mm 0.2°
6
78%2 cm
19:00
Voelt als: -1.8°
1011.9 hPa 5.1 mm -0.4°
4
50%3 cm
22:00
Voelt als: -2.6°
1014.5 hPa 5.1 mm -0.4°
4
45%3 cm
 07:21     18:17    Daglengte: 10:56 Morgen
01:00
Voelt als: -2.5°
1014.9 hPa 3.9 mm -0.5°
4
62%3 cm
04:00
Voelt als: -3.1°
1013.8 hPa   -0.9°
5
74%3 cm
07:00
Voelt als: -2.9°
1011.5 hPa   -1.8°
5
89%3 cm
10:00
Voelt als: -1.1°
1006.5 hPa   -1.5°
6
88%2 cm
13:00
Voelt als: -1.1°
1000.0 hPa 6.6 mm 1.4°
11
91%2 cm
16:00
Voelt als: 1.4°
999.0 hPa 7.2 mm 3.8°
11
84%2 cm
19:00
Voelt als: 2.2°
1005.0 hPa 6.9 mm 4.5°
8
58%2 cm
22:00
Voelt als: 0.0°
1012.5 hPa 7.3 mm 1.7°
5
54%2 cm
 07:19     18:19    Daglengte: 11:00 Vrijdag 28 Feb
01:00
Voelt als: -1.0°
1016.9 hPa 6.2 mm 0.5°
3
46%2 cm
04:00
Voelt als: -1.8°
1019.5 hPa   -0.2°
2
44%1 cm
07:00
Voelt als: -2.8°
1021.0 hPa   -0.6°
2
42%1 cm
10:00
Voelt als: 1.3°
1021.1 hPa   -1.9°
2
58%1 cm
13:00
Voelt als: 5.4°
1018.8 hPa   -4.1°
2
58%1 cm
16:00
Voelt als: 5.6°
1016.4 hPa   -3.7°
2
78%1 cm
19:00
Voelt als: 2.3°
1015.2 hPa 6.4 mm -2.3°
4
96%1 cm
22:00
Voelt als: 5.2°
1014.1 hPa 15.6 mm 1.0°
5
94%1 cm
 07:17     18:20    Daglengte: 11:03 Zaterdag 29 Feb
01:00
Voelt als: 6.4°
1012.1 hPa 10.4 mm 2.3°
5
99%1 cm
04:00
Voelt als: 6.5°
1007.7 hPa 5.3 mm 3.2°
5
96%1 cm
07:00
10°
Voelt als: 6.8°
1004.4 hPa   4.5°
5
84%1 cm
10:00
13°
1002.2 hPa 15.3 mm 4.4°
8
87%
13:00
15°
1000.2 hPa 15.3 mm 3.9°
10
85%
16:00
12°
1001.6 hPa 16.4 mm 6.3°
9
74%
19:00
Voelt als: 4.7°
1003.3 hPa 21.4 mm 6.8°
9
62%
22:00
Voelt als: 2.4°
1007.6 hPa 22.3 mm 4.6°
7
74%
 07:15     18:22    Daglengte: 11:07 Zondag 01 Maa
01:00
Voelt als: 0.5°
1011.5 hPa 22.3 mm 2.5°
4
85%
04:00
Voelt als: -0.0°
1012.0 hPa 22.3 mm 1.9°
4
58%
07:00
Voelt als: -0.5°
1012.5 hPa 22.8 mm 1.4°
4
30%
10:00
Voelt als: 2.4°
1011.7 hPa 23.8 mm 1.2°
4
25%
13:00
Voelt als: 5.6°
1010.8 hPa 24.3 mm 0.1°
5
19%
16:00
Voelt als: 5.7°
1008.3 hPa 24.6 mm -0.0°
5
50%
19:00
Voelt als: 5.5°
1005.9 hPa 24.9 mm -0.1°
5
80%
22:00
Voelt als: 3.8°
1003.9 hPa 31.9 mm 1.3°
6
85%
 07:13     18:23    Daglengte: 11:10 Maandag 02 Maa
01:00
Voelt als: 2.0°
1002.2 hPa 33.2 mm 2.2°
8
90%
04:00
Voelt als: 1.0°
1003.7 hPa 33.3 mm 2.8°
8
74%
07:00
Voelt als: -0.0°
1004.8 hPa 33.3 mm 3.3°
8
57%
10:00
Voelt als: 3.0°
1003.6 hPa 33.3 mm 3.1°
6
75%
13:00
Voelt als: 5.7°
1002.4 hPa 33.3 mm 2.6°
4
92%
16:00
Voelt als: 4.8°
1001.1 hPa 35.5 mm 3.1°
4
92%
19:00
Voelt als: 4.0°
1000.0 hPa 38.4 mm 3.3°
3
92%
22:00
Voelt als: 2.9°
1002.8 hPa 39.9 mm 3.2°
3
92%
 07:11     18:24    Daglengte: 11:13 Dinsdag 03 Maa
01:00
Voelt als: 1.8°
1005.5 hPa 41.1 mm 3.1°
3
92%
04:00
Voelt als: 1.3°
1008.7 hPa 41.5 mm 2.6°
3
72%
07:00
Voelt als: 0.5°
1012.0 hPa 44.8 mm 1.9°
2
52%
10:00
Voelt als: 2.4°
1014.5 hPa 47.7 mm 2.3°
2
44%
13:00
Voelt als: 4.0°
1017.0 hPa 49.7 mm 2.7°
2
36%
16:00
Voelt als: 4.0°
1017.8 hPa 50.4 mm 1.4°
2
63%
19:00
Voelt als: 3.8°
1018.7 hPa 50.8 mm 0.1°
1
90%
22:00
Voelt als: 0.8°
1018.2 hPa 50.8 mm -1.1°
2
90%
 07:09     18:26    Daglengte: 11:17 Woensdag 04 Maa
01:00
Voelt als: -2.0°
1017.5 hPa 50.8 mm -2.5°
3
90%
04:00
Voelt als: -0.4°
1015.3 hPa 50.8 mm -3.0°
4
91%
07:00
Voelt als: 1.3°
1013.2 hPa 101.7 mm -3.7°
5
92%
13:00
10°
Voelt als: 6.5°
1014.3 hPa 104.7 mm 5.0°
7
45%
19:00
Voelt als: 6.4°
1012.4 hPa 109.1 mm 5.8°
5
31%
 07:07     18:27    Daglengte: 11:20 Donderdag 05 Maa
01:00
Voelt als: 4.6°
1009.4 hPa 116.0 mm 6.0°
7
54%
07:00
Voelt als: -0.6°
1015.2 hPa 120.0 mm 0.9°
5
16%
13:00
Voelt als: 2.7°
1014.8 hPa 123.3 mm 0.6°
6
57%
19:00
Voelt als: -0.2°
1011.8 hPa 128.9 mm 1.9°
5
88%
 07:05     18:29    Daglengte: 11:24 Vrijdag 06 Maa
01:00
Voelt als: -2.2°
1011.6 hPa 132.5 mm 1.7°
6
89%
07:00
Voelt als: -3.2°
1013.0 hPa 136.9 mm -0.2°
5
92% warningclass
13:00
Voelt als: 0.3°
1011.6 hPa 143.1 mm 1.3°
5
1%
19:00
Voelt als: -1.0°
1015.0 hPa 148.9 mm -0.3°
2
1%
 07:04     18:30    Daglengte: 11:26 Zaterdag 07 Maa
01:00
-0°
Voelt als: -3.2°
1019.3 hPa 151.3 mm -1.0°
3
1% warningclass
07:00
Voelt als: -1.6°
1012.6 hPa 2.9 mm -0.6°
2
73%
13:00
Voelt als: 1.5°
1014.2 hPa 1.7 mm 1.5°
3
66%
19:00
Voelt als: 0.1°
1015.7 hPa 0.1 mm 0.1°
1
64%
 07:02     18:32    Daglengte: 11:30 Zondag 08 Maa
01:00
Voelt als: -1.1°
1016.9 hPa 1.1 mm -1.2°
1
52%
07:00
-0°
Voelt als: -1.9°
1016.2 hPa 0.9 mm -1.5°
2
59%
13:00
Voelt als: 3.6°
1015.0 hPa 0.8 mm 1.9°
2
64%
19:00
Voelt als: 2.0°
1015.3 hPa 2.1 mm 0.9°
1
59%
 07:00     18:33    Daglengte: 11:33 Maandag 09 Maa
01:00
1017.0 hPa 1.3 mm -0.3°
0
55%
07:00
-0°
1017.9 hPa 0.8 mm -1.7°
0
50%
13:00
Voelt als: 5.5°
1017.7 hPa 0.6 mm 2.2°
0
44%
19:00
Voelt als: 1.5°
1018.3 hPa 0.7 mm 0.8°
1
47%
 06:58     18:35    Daglengte: 11:37 Dinsdag 10 Maa
01:00
Voelt als: -0.6°
1019.3 hPa 0.5 mm -0.8°
1
50%
07:00
Voelt als: -1.1°
1018.9 hPa 0.4 mm -1.6°
1
55%
13:00
Voelt als: 6.2°
1017.8 hPa 0.4 mm 2.4°
1
55%
19:00
Voelt als: 3.0°
1018.3 hPa 1.1 mm 1.5°
1
59%
 06:56     18:36    Daglengte: 11:40 Woensdag 11 Maa
01:00
1019.7 hPa 1.5 mm 0.1°
0
52%
07:00
1019.7 hPa 0.8 mm -0.8°
1
52%
13:00
1019.0 hPa 0.6 mm 2.7°
1
46%
19:00
Voelt als: 3.7°
1018.8 hPa 0.7 mm 1.9°
1
49%
 06:54     18:38    Daglengte: 11:44 Donderdag 12 Maa
01:00
1019.9 hPa 1.2 mm 0.5°
0
43%
07:00
1020.3 hPa 0.6 mm -0.8°
1
34%
  CAPE Lifted Index Hail Supercell Tornado SRH 3km CL BTM PRES CL TOP PRES Swiss DWD icon SMHI TS
 07:22     18:16    Daglengte: 10:54 Vandaag
08:00 33 J/kg 0.2 K 0 % 0 % 0 % 0 m²/s² 0 0 1.76 85
09:00 89 J/kg 0.3 K 0 % 0 % 0 % 0 m²/s² 0 0 1.5 85
10:00 175 J/kg -0.7 K 0 % 0 % 0 % 0 m²/s² 0 0 0.74 85
11:00 137 J/kg 0.1 K 0 % 0 % 0 % 0 m²/s² 0 0 0.61 95
12:00 190 J/kg -0.3 K 0 % 0 % 0 % 0 m²/s² 0 0 2.4 95
13:00 231 J/kg -0.5 K 0 % 0 % 0 % 0 m²/s² 0 0 1.93 85
14:00 189 J/kg 0.0 K 0 % 0 % 0 % 0 m²/s² 0 0 2.34 85
15:00 180 J/kg -0.2 K 0 % 0 % 0 % 0 m²/s² 0 0 2.35 3
16:00 246 J/kg -0.5 K 0 % 0 % 0 % 0 m²/s² 0 0 1.54 80
17:00 165 J/kg 0.0 K 0 % 0 % 0 % 0 m²/s² 0 0 1.02 85
18:00 164 J/kg -0.4 K 0 % 0 % 0 % 0 m²/s² 0 0 0.17 85
19:00 5 J/kg 1.4 K 0 % 0 % 0 % 0 m²/s² 0 0 2.69 85
20:00 4 J/kg 2.8 K 0 % 0 % 0 % 0 m²/s² 0 0 4.24 85
21:00 22 J/kg 4.3 K 0 % 0 % 0 % 0 m²/s² 0 0 6.13 85
22:00 31 J/kg 5.1 K 0 % 0 % 0 % 0 m²/s² 0 0 8.55 85
23:00 65 J/kg 6.0 K 0 % 0 % 0 % 0 m²/s² 0 0 10.35 85
 07:21     18:17    Daglengte: 10:56 Morgen
00:00 23 J/kg 7.5 K 0 % 0 % 0 % 0 m²/s² 0 0 9.06 85
01:00 1 J/kg 8.6 K 0 % 0 % 0 % 0 m²/s² 0 0 13.25 2
02:00 0 J/kg 9.7 K 0 % 0 % 0 % 0 m²/s² 0 0 15.22 2
03:00 0 J/kg 10.2 K 0 % 0 % 0 % 0 m²/s² 0 0 14.67 2
04:00 0 J/kg 10.7 K 0 % 0 % 0 % 0 m²/s² 0 0 14.27 3
05:00 0 J/kg 11.6 K 0 % 0 % 0 % 0 m²/s² 0 0 14.6 3
06:00 0 J/kg 12.7 K 0 % 0 % 0 % 0 m²/s² 0 0 15.58 3
07:00 0 J/kg 12.5 K 0 % 0 % 0 % 0 m²/s² 0 0 14.3 3
08:00 0 J/kg 12.5 K 0 % 0 % 0 % 0 m²/s² 0 0 13.01 3
09:00 0 J/kg 12.7 K 0 % 0 % 0 % 0 m²/s² 0 0 13.18 3
10:00 0 J/kg 11.0 K 0 % 0 % 0 % 0 m²/s² 0 0 11.45 3
11:00 0 J/kg 9.1 K 0 % 0 % 0 % 0 m²/s² 0 0 9.52 3
12:00 0 J/kg 6.6 K 0 % 0 % 0 % 0 m²/s² 0 0 6.87 61
13:00 0 J/kg 3.9 K 0 % 0 % 0 % 0 m²/s² 0 0 4.71 61
14:00 0 J/kg 2.8 K 0 % 0 % 0 % 0 m²/s² 0 0 7.06 61
15:00 0 J/kg 2.6 K 0 % 0 % 0 % 0 m²/s² 0 0 7.82 61
16:00 0 J/kg 2.7 K 0 % 0 % 0 % 0 m²/s² 0 0 6.15 80
17:00 0 J/kg 2.2 K 0 % 0 % 0 % 0 m²/s² 0 0 7.51 3
18:00 123 J/kg 1.8 K 0 % 0 % 0 % 0 m²/s² 0 0 7.23 80
19:00 210 J/kg 4.1 K 0 % 0 % 0 % 0 m²/s² 0 0 12.8 80
20:00 92 J/kg 8.7 K 0 % 0 % 0 % 0 m²/s² 0 0 17.31 80
21:00 74 J/kg 9.6 K 0 % 0 % 0 % 0 m²/s² 0 0 17.76 61
22:00 93 J/kg 9.8 K 0 % 0 % 0 % 0 m²/s² 0 0 17.57 2
23:00 104 J/kg 10.3 K 0 % 0 % 0 % 0 m²/s² 0 0 18.4 80
 07:19     18:19    Daglengte: 11:00 Vrijdag 28 Feb
00:00 83 J/kg 10.7 K 0 % 0 % 0 % 0 m²/s² 0 0 19.13 80
01:00 59 J/kg 11.4 K 0 % 0 % 0 % 0 m²/s² 0 0 19.44 3
02:00 53 J/kg 11.8 K 0 % 0 % 0 % 0 m²/s² 0 0 19.84 3
03:00 65 J/kg 11.8 K 0 % 0 % 0 % 0 m²/s² 0 0 19.21 3
04:00 42 J/kg 12.5 K 0 % 0 % 0 % 0 m²/s² 0 0 19.67 2
05:00 9 J/kg 13.3 K 0 % 0 % 0 % 0 m²/s² 0 0 19.6 1
06:00 0 J/kg 13.8 K 0 % 0 % 0 % 0 m²/s² 0 0 19.23 2
07:00 0 J/kg 14.7 K 0 % 0 % 0 % 0 m²/s² 0 0 19.59 2
08:00 0 J/kg 15.5 K 0 % 0 % 0 % 0 m²/s² 0 0 19.4 2
09:00 1 J/kg 15.2 K 0 % 0 % 0 % 0 m²/s² 0 0 17.39 1
10:00 19 J/kg 14.7 K 0 % 0 % 0 % 0 m²/s² 0 0 18.03 2
11:00 12 J/kg 14.6 K 0 % 0 % 0 % 0 m²/s² 0 0 15.11 3
12:00 12 J/kg 13.8 K 0 % 0 % 0 % 0 m²/s² 0 0 14.67 3
13:00 1 J/kg 13.1 K 0 % 0 % 0 % 0 m²/s² 0 0 13.52 3
14:00 0 J/kg 13.4 K 0 % 0 % 0 % 0 m²/s² 0 0 13.73 3
15:00 0 J/kg 10.2 K 0 % 0 % 0 % 0 m²/s² 0 0 10.53 80
16:00 0 J/kg 7.7 K 0 % 0 % 0 % 0 m²/s² 0 0 8.42 3
17:00 0 J/kg 5.6 K 0 % 0 % 0 % 0 m²/s² 0 0 6.14 61
18:00 0 J/kg 4.6 K 0 % 0 % 0 % 0 m²/s² 0 0 5.11 61
19:00 0 J/kg 4.4 K 0 % 0 % 0 % 0 m²/s² 0 0 4.7 61
20:00 0 J/kg 4.0 K 0 % 0 % 0 % 0 m²/s² 0 0 4.21 61
21:00 0 J/kg 2.6 K 0 % 0 % 0 % 0 m²/s² 0 0 2.81 61
22:00 0 J/kg 1.9 K 0 % 0 % 0 % 0 m²/s² 0 0 2.26 61
23:00 0 J/kg 0.9 K 0 % 0 % 0 % 0 m²/s² 0 0 1.98 61
 07:17     18:20    Daglengte: 11:03 Zaterdag 29 Feb
00:00 0 J/kg 0.5 K 0 % 0 % 0 % 0 m²/s² 0 0 1.25 61
01:00 0 J/kg 0.5 K 0 % 0 % 0 % 0 m²/s² 0 0 2 61
02:00 0 J/kg 4.3 K 0 % 0 % 0 % 0 m²/s² 0 0 6.67 3
03:00 0 J/kg 4.3 K 0 % 0 % 0 % 0 m²/s² 0 0 7.45 3
04:00 0 J/kg 4.3 K 0 % 0 % 0 % 0 m²/s² 0 0 7.9 80
05:00 0 J/kg 4.6 K 0 % 0 % 0 % 0 m²/s² 0 0 7.99 3
06:00 0 J/kg 3.9 K 0 % 0 % 0 % 0 m²/s² 0 0 8.88 3
07:00 0 J/kg 3.8 K 0 % 0 % 0 % 0 m²/s² 0 0 9.08 3
Temp Baro Wind Neerslag
  EWN Forecast EWN WRFDA DWD ICON FMI HIRLAM MET Norway GFS
 07:22     18:16    Daglengte: 10:54 Vandaag
10:00 2.7° 1006.8 hPa 6.0 m/s 4.5 mm 2.4° 1002.6 hPa 7.2 m/s 16.9 mm 2.7° 1007.1 hPa 5.6 m/s 1.5 mm 3.4° 1005.3 hPa 8.5 m/s 0.0 mm 2.4° 1007.4 hPa 5.6 m/s 3.0° 1007.0 hPa 6.1 m/s
13:00 3.8° 1007.8 hPa 6.1 m/s 5.0 mm 4.6° 1004.8 hPa 9.0 m/s 18.3 mm 3.8° 1007.7 hPa 5.4 m/s 2.5 mm 5.1° 1005.1 hPa 8.6 m/s 0.0 mm 3.6° 1008.8 hPa 5.7 m/s 3.7° 1008.8 hPa 7.6 m/s
16:00 4.3° 1008.9 hPa 5.6 m/s 3.7 mm 5.3° 1005.8 hPa 9.1 m/s 18.7 mm 4.8° 1008.7 hPa 5.7 m/s 0.6 mm 5.0° 1006.8 hPa 7.5 m/s 0.0 mm 3.8° 1009.7 hPa 4.9 m/s 4.4° 1010.0 hPa 6.1 m/s
19:00 2.1° 1011.9 hPa 4.2 m/s 5.1 mm 1.3° 1008.5 hPa 3.2 m/s 22.2 mm 2.2° 1012.1 hPa 3.5 m/s 1.6 mm 3.6° 1010.1 hPa 5.7 m/s 0.0 mm 1.6° 1012.4 hPa 4.8 m/s 2.0° 1013.0 hPa 4.2 m/s
22:00 1.4° 1014.5 hPa 4.0 m/s 5.1 mm 1.3° 1010.9 hPa 4.2 m/s 28.3 mm 1.1° 1014.6 hPa 3.9 m/s 2.2 mm 3.0° 1012.8 hPa 4.9 m/s 0.0 mm 0.7° 1015.0 hPa 3.8 m/s 0.7° 1015.4 hPa 4.1 m/s
 07:21     18:17    Daglengte: 10:56 Morgen
01:00 1.6° 1014.9 hPa 4.2 m/s 3.9 mm 1.8° 1012.2 hPa 5.9 m/s 28.4 mm 1.5° 1015.1 hPa 3.9 m/s 1.0 mm 3.3° 1013.2 hPa 4.6 m/s 0.0 mm 0.3° 1015.3 hPa 4.0 m/s 0.2° 1017.0 hPa 4.3 m/s
04:00 1.3° 1013.8 hPa 4.6 m/s 0.0 mm 0.4° 1011.2 hPa 5.5 m/s 28.4 mm 1.5° 1014.6 hPa 3.9 m/s 0.0 mm 2.3° 1011.9 hPa 5.4 m/s 0.0 mm 0.4° 1014.1 hPa 4.6 m/s 0.4° 1016.1 hPa 4.2 m/s
07:00 1.5° 1011.5 hPa 4.7 m/s 0.0 mm 0.9° 1009.4 hPa 5.4 m/s 28.4 mm 1.7° 1012.0 hPa 3.4 m/s 0.0 mm 2.9° 1009.1 hPa 5.6 m/s 0.0 mm 1.0° 1011.8 hPa 4.8 m/s 0.3° 1014.7 hPa 3.0 m/s
10:00 3.3° 1006.5 hPa 5.8 m/s 0.0 mm 3.1° 1004.0 hPa 9.7 m/s 28.5 mm 4.0° 1007.8 hPa 4.8 m/s 0.0 mm 3.7° 1003.9 hPa 9.1 m/s 0.0 mm 3.2° 1006.8 hPa 4.0 m/s 3.7° 1009.2 hPa 5.8 m/s
13:00 4.8° 1000.0 hPa 11.3 m/s 6.6 mm 4.4° 997.3 hPa 14.4 m/s 32.2 mm 5.0° 1000.3 hPa 9.6 m/s 1.2 mm 4.8° 998.3 hPa 13.5 m/s 0.0 mm 4.8° 1001.2 hPa 11.3 m/s 4.3° 1004.4 hPa 9.4 m/s
16:00 6.5° 999.0 hPa 10.6 m/s 7.2 mm 6.6° 995.4 hPa 14.8 m/s 36.2 mm 6.2° 999.3 hPa 9.9 m/s 1.4 mm 7.5° 998.0 hPa 12.5 m/s 0.0 mm 6.4° 999.3 hPa 10.2 m/s 6.2° 1001.0 hPa 10.8 m/s
19:00 6.6° 1005.0 hPa 8.0 m/s 6.9 mm 7.9° 1001.6 hPa 10.4 m/s 39.5 mm 6.6° 1002.9 hPa 8.4 m/s 0.9 mm 5.9° 1006.4 hPa 8.7 m/s 0.0 mm 6.5° 1005.2 hPa 7.3 m/s 7.5° 1004.8 hPa 8.8 m/s
22:00 3.9° 1012.5 hPa 4.9 m/s 7.3 mm 3.7° 1009.5 hPa 7.0 m/s 41.3 mm 5.1° 1010.9 hPa 3.5 m/s 0.5 mm 4.2° 1012.2 hPa 7.0 m/s 0.0 mm 3.1° 1013.1 hPa 4.4 m/s 3.8° 1012.7 hPa 4.8 m/s
 07:19     18:19    Daglengte: 11:00 Vrijdag 28 Feb
01:00 2.3° 1016.9 hPa 3.4 m/s 6.2 mm 2.9° 1013.3 hPa 6.0 m/s 43.2 mm 3.7° 1016.1 hPa 3.2 m/s 0.7 mm 2.5° 1016.4 hPa 4.1 m/s 0.0 mm 1.7° 1017.6 hPa 2.9 m/s 2.7° 1016.9 hPa 4.2 m/s
04:00 0.6° 1019.5 hPa 2.0 m/s 0.0 mm 1.3° 1015.3 hPa 3.6 m/s 43.7 mm 1.5° 1019.3 hPa 1.5 m/s 0.0 mm 0.4° 1019.7 hPa 1.9 m/s 0.7° 1019.6 hPa 2.4 m/s
07:00 0.1° 1021.0 hPa 2.3 m/s 0.0 mm -0.8° 1015.6 hPa 2.9 m/s 43.7 mm 0.9° 1020.5 hPa 1.2 m/s 0.0 mm 0.1° 1021.6 hPa 2.4 m/s -0.2° 1021.4 hPa 1.6 m/s
10:00 3.2° 1021.1 hPa 2.0 m/s 0.0 mm 4.0° 1017.2 hPa 4.7 m/s 43.7 mm 4.3° 1020.2 hPa 0.8 m/s 0.0 mm 3.1° 1023.3 hPa 1.9 m/s 3.6° 1020.5 hPa 1.6 m/s
13:00 6.8° 1018.8 hPa 2.1 m/s 0.0 mm 6.5° 1016.1 hPa 6.9 m/s 43.7 mm 6.8° 1017.7 hPa 1.7 m/s 0.0 mm 6.9° 1020.7 hPa 1.6 m/s 6.3° 1018.5 hPa 3.1 m/s
16:00 7.2° 1016.4 hPa 2.4 m/s 0.0 mm 5.9° 1013.3 hPa 4.8 m/s 44.2 mm 7.3° 1014.7 hPa 2.0 m/s 0.2 mm 7.7° 1018.2 hPa 2.0 m/s 5.8° 1016.5 hPa 3.0 m/s
19:00 5.6° 1015.2 hPa 4.4 m/s 6.4 mm 7.0° 1010.4 hPa 7.7 m/s 44.8 mm 6.8° 1013.6 hPa 4.3 m/s 0.9 mm 5.1° 1016.4 hPa 2.7 m/s 5.5° 1015.8 hPa 3.3 m/s
22:00 8.1° 1014.1 hPa 5.1 m/s 15.6 mm 8.6° 1009.7 hPa 9.8 m/s 45.3 mm 8.9° 1011.7 hPa 4.9 m/s 0.8 mm 7.1° 1014.7 hPa 3.8 m/s 7.5° 1014.1 hPa 3.6 m/s
 07:17     18:20    Daglengte: 11:03 Zaterdag 29 Feb
01:00 9.0° 1012.1 hPa 4.8 m/s 10.4 mm 9.1° 1009.2 hPa 7.4 m/s 45.9 mm 9.0° 1008.8 hPa 3.0 m/s 0.4 mm 9.1° 1013.0 hPa 4.9 m/s 7.1° 1012.2 hPa 2.7 m/s
04:00 8.9° 1007.7 hPa 4.6 m/s 5.3 mm 7.5° 1006.0 hPa 6.3 m/s 45.9 mm 9.0° 1004.9 hPa 2.9 m/s 0.3 mm 9.2° 1009.8 hPa 4.7 m/s 6.2° 1009.1 hPa 1.8 m/s
07:00 9.5° 1004.4 hPa 5.5 m/s 0.0 mm 8.0° 1003.1 hPa 6.0 m/s 45.9 mm 11.5° 1000.5 hPa 7.9 m/s 0.0 mm 9.3° 1006.5 hPa 4.4 m/s 6.0° 1005.3 hPa 1.6 m/s
10:00 13.3° 1002.2 hPa 7.5 m/s 15.3 mm 13.5° 1002.2 hPa 7.9 m/s 11.0° 1002.4 hPa 3.2 m/s 15.3 mm
13:00 15.4° 1000.2 hPa 9.8 m/s 15.3 mm 15.6° 1000.1 hPa 9.7 m/s 13.7° 1001.5 hPa 10.3 m/s 15.3 mm
16:00 12.0° 1001.6 hPa 9.5 m/s 16.4 mm 12.2° 1001.7 hPa 9.5 m/s 10.1° 1001.5 hPa 9.2 m/s 16.4 mm
19:00 8.7° 1003.3 hPa 9.1 m/s 21.4 mm 8.8° 1003.2 hPa 9.3 m/s 7.7° 1004.8 hPa 6.6 m/s 21.4 mm
22:00 6.4° 1007.6 hPa 6.7 m/s 22.3 mm 6.5° 1007.5 hPa 6.9 m/s 5.4° 1008.4 hPa 4.5 m/s 22.3 mm
 07:15     18:22    Daglengte: 11:07 Zondag 01 Maa
01:00 4.1° 1011.5 hPa 4.5 m/s 22.3 mm 4.1° 1011.8 hPa 4.5 m/s 4.1° 1008.6 hPa 4.1 m/s 22.3 mm
04:00 3.5° 1012.0 hPa 4.1 m/s 22.3 mm 3.4° 1012.3 hPa 4.0 m/s 4.4° 1008.5 hPa 5.7 m/s 22.3 mm
07:00 2.9° 1012.5 hPa 3.7 m/s 22.8 mm 2.8° 1012.8 hPa 3.5 m/s 4.4° 1008.9 hPa 6.1 m/s 22.8 mm
10:00 5.6° 1011.7 hPa 4.4 m/s 23.8 mm 5.7° 1012.0 hPa 4.2 m/s 4.1° 1009.1 hPa 6.0 m/s 23.8 mm
13:00 8.4° 1010.8 hPa 5.0 m/s 24.3 mm 8.6° 1011.1 hPa 4.9 m/s 6.7° 1007.1 hPa 5.7 m/s 24.3 mm
16:00 8.4° 1008.3 hPa 4.9 m/s 24.6 mm 8.5° 1008.7 hPa 4.8 m/s 7.7° 1005.0 hPa 6.9 m/s 24.6 mm
19:00 8.2° 1005.9 hPa 4.6 m/s 24.9 mm 8.4° 1006.2 hPa 4.6 m/s 6.3° 1003.0 hPa 4.4 m/s 24.9 mm
22:00 7.4° 1003.9 hPa 6.4 m/s 31.9 mm 7.5° 1004.0 hPa 6.4 m/s 6.4° 1002.5 hPa 6.4 m/s 31.9 mm
 07:13     18:23    Daglengte: 11:10 Maandag 02 Maa
01:00 6.4° 1002.2 hPa 8.0 m/s 33.2 mm 6.6° 1001.9 hPa 8.2 m/s 4.4° 1005.4 hPa 5.5 m/s 33.2 mm
04:00 5.7° 1003.7 hPa 8.0 m/s 33.3 mm 5.8° 1003.4 hPa 8.4 m/s 4.1° 1006.4 hPa 3.6 m/s 33.3 mm
07:00 4.9° 1004.8 hPa 8.0 m/s 33.3 mm 5.0° 1004.9 hPa 8.6 m/s 3.4° 1003.8 hPa 1.7 m/s 33.3 mm
10:00 6.7° 1003.6 hPa 6.1 m/s 33.3 mm 6.7° 1003.8 hPa 6.6 m/s 6.8° 1001.0 hPa 0.4 m/s 33.3 mm
13:00 8.3° 1002.4 hPa 4.5 m/s 33.3 mm 8.3° 1002.7 hPa 4.6 m/s 8.6° 998.7 hPa 2.9 m/s 33.3 mm
16:00 7.3° 1001.1 hPa 3.7 m/s 35.5 mm 7.3° 1001.5 hPa 3.9 m/s 7.0° 996.9 hPa 1.0 m/s 35.5 mm
19:00 6.3° 1000.0 hPa 3.2 m/s 38.4 mm 6.3° 1000.2 hPa 3.3 m/s 6.4° 998.2 hPa 1.6 m/s 38.4 mm
22:00 5.5° 1002.8 hPa 3.3 m/s 39.9 mm 5.4° 1003.1 hPa 3.5 m/s 6.2° 999.6 hPa 1.3 m/s 39.9 mm
 07:11     18:24    Daglengte: 11:13 Dinsdag 03 Maa
01:00 4.6° 1005.5 hPa 3.4 m/s 41.1 mm 4.5° 1006.0 hPa 3.6 m/s 6.0° 1000.6 hPa 1.0 m/s 41.1 mm
04:00 3.6° 1008.7 hPa 2.5 m/s 41.5 mm 3.5° 1009.2 hPa 2.5 m/s 5.7° 1002.6 hPa 2.3 m/s 41.5 mm
07:00 2.5° 1012.0 hPa 2.0 m/s 44.8 mm 2.4° 1012.5 hPa 1.5 m/s 3.9° 1006.3 hPa 6.9 m/s 44.8 mm
10:00 4.1° 1014.5 hPa 1.9 m/s 47.7 mm 4.1° 1015.0 hPa 1.9 m/s 3.6° 1009.9 hPa 1.8 m/s 47.7 mm
13:00 5.8° 1017.0 hPa 2.3 m/s 49.7 mm 5.8° 1017.4 hPa 2.3 m/s 5.7° 1012.2 hPa 2.0 m/s 49.7 mm
16:00 5.4° 1017.8 hPa 1.8 m/s 50.4 mm 5.2° 1018.3 hPa 1.8 m/s 7.3° 1011.9 hPa 2.6 m/s 50.4 mm
19:00 4.6° 1018.7 hPa 1.2 m/s 50.8 mm 4.7° 1019.3 hPa 1.2 m/s 3.2° 1011.8 hPa 1.8 m/s 50.8 mm
22:00 2.9° 1018.2 hPa 2.1 m/s 50.8 mm 3.0° 1018.8 hPa 2.1 m/s 2.0° 1012.3 hPa 1.7 m/s 50.8 mm
 07:09     18:26    Daglengte: 11:17 Woensdag 04 Maa
01:00 1.3° 1017.5 hPa 3.0 m/s 50.8 mm 1.3° 1018.2 hPa 3.1 m/s 0.8° 1010.2 hPa 2.2 m/s 50.8 mm
04:00 3.0° 1015.3 hPa 3.8 m/s 50.8 mm 3.2° 1016.1 hPa 4.0 m/s 1.9° 1006.2 hPa 1.9 m/s 50.8 mm
07:00 4.9° 1013.2 hPa 4.8 m/s 50.9 mm 5.0° 1014.0 hPa 4.8 m/s 4.0° 1003.9 hPa 4.9 m/s 50.9 mm
13:00 9.6° 1014.3 hPa 6.9 m/s 53.0 mm 9.8° 1015.0 hPa 6.9 m/s 7.5° 1006.2 hPa 7.2 m/s 53.0 mm
19:00 9.1° 1012.4 hPa 5.3 m/s 55.1 mm 9.4° 1012.9 hPa 5.1 m/s 6.0° 1007.4 hPa 7.7 m/s 55.1 mm
 07:07     18:27    Daglengte: 11:20 Donderdag 05 Maa
01:00 8.3° 1009.4 hPa 7.3 m/s 58.9 mm 8.7° 1009.6 hPa 7.4 m/s 3.7° 1007.1 hPa 6.3 m/s 58.9 mm
07:00 3.2° 1015.2 hPa 4.6 m/s 60.2 mm 3.4° 1016.1 hPa 4.5 m/s 1.6° 1005.7 hPa 5.6 m/s 60.2 mm
13:00 6.3° 1014.8 hPa 5.5 m/s 62.5 mm 6.5° 1015.6 hPa 5.4 m/s 4.1° 1006.6 hPa 7.1 m/s 62.5 mm
19:00 3.8° 1011.8 hPa 5.1 m/s 64.9 mm 4.0° 1012.1 hPa 5.2 m/s 1.9° 1008.1 hPa 3.9 m/s 64.9 mm
 07:05     18:29    Daglengte: 11:24 Vrijdag 06 Maa
01:00 2.4° 1011.6 hPa 5.5 m/s 66.6 mm 2.5° 1011.8 hPa 5.6 m/s 1.3° 1009.1 hPa 4.9 m/s 66.6 mm
07:00 1.2° 1013.0 hPa 4.6 m/s 69.5 mm 1.2° 1013.3 hPa 4.6 m/s 1.1° 1009.6 hPa 4.5 m/s 69.5 mm
13:00 4.1° 1011.6 hPa 4.8 m/s 72.3 mm 4.1° 1011.6 hPa 4.8 m/s 72.3 mm
19:00 1.4° 1015.0 hPa 2.1 m/s 74.9 mm 1.4° 1015.0 hPa 2.1 m/s 74.9 mm
 07:04     18:30    Daglengte: 11:26 Zaterdag 07 Maa
01:00 -0.1° 1019.3 hPa 2.5 m/s 75.9 mm -0.1° 1019.3 hPa 2.5 m/s 75.9 mm
07:00 0.5° 1012.6 hPa 1.7 m/s 2.9 mm
13:00 3.8° 1014.2 hPa 2.5 m/s 1.7 mm
19:00 1.6° 1015.7 hPa 1.5 m/s 0.1 mm
 07:02     18:32    Daglengte: 11:30 Zondag 08 Maa
01:00 0.1° 1016.9 hPa 1.2 m/s 1.1 mm
07:00 -0.1° 1016.2 hPa 1.6 m/s 0.9 mm
13:00 4.8° 1015.0 hPa 1.6 m/s 0.8 mm
19:00 2.4° 1015.3 hPa 0.9 m/s 2.1 mm
 07:00     18:33    Daglengte: 11:33 Maandag 09 Maa
01:00 1.1° 1017.0 hPa 0.4 m/s 1.3 mm
07:00 -0.2° 1017.9 hPa 0.3 m/s 0.8 mm
13:00 5.5° 1017.7 hPa 0.1 m/s 0.6 mm
19:00 2.7° 1018.3 hPa 1.3 m/s 0.7 mm
 06:58     18:35    Daglengte: 11:37 Dinsdag 10 Maa
01:00 0.9° 1019.3 hPa 1.4 m/s 0.5 mm
07:00 0.2° 1018.9 hPa 1.2 m/s 0.4 mm
13:00 6.3° 1017.8 hPa 0.9 m/s 0.4 mm
19:00 3.5° 1018.3 hPa 1.0 m/s 1.1 mm
 06:56     18:36    Daglengte: 11:40 Woensdag 11 Maa
01:00 1.8° 1019.7 hPa 0.5 m/s 1.5 mm
07:00 1.2° 1019.7 hPa 0.7 m/s 0.8 mm
13:00 6.6° 1019.0 hPa 0.8 m/s 0.6 mm
19:00 4.2° 1018.8 hPa 1.1 m/s 0.7 mm
 06:54     18:38    Daglengte: 11:44 Donderdag 12 Maa
01:00 2.2° 1019.9 hPa 0.4 m/s 1.2 mm
07:00 1.2° 1020.3 hPa 0.5 m/s 0.6 mm
FMI Hirlam - 7.5 km EWN WRFDA - 12 km DWD ICON - 7 km GFS - 25 km Basiskaart






























































Updatetijd (Europe/Amsterdam) Resolutie Lengte Stap
FMI Hirlam 06:15, 12:15, 18:15, 00:15 7.5 km 49h 1h
EWN WRFDA 02:15, 08:15, 14:15, 20:15 12 km 73h 1h
DWD ICON 05:00, 11:00, 17:00, 23:00 7 km 75h 1h
GFS 01:00, 07:00, 13:00, 19:00 25 km 237h 3h
30+ mm
25-30 mm
20-25 mm
15-20 mm
10-15 mm
6-10 mm
4-6 mm
2-4 mm
1-2 mm
0.5-1 mm
0.2-0.5 mm
0.1-0.2 mm
30+ mm
25-30 mm
20-25 mm
15-20 mm
10-15 mm
6-10 mm
4-6 mm
2-4 mm
1-2 mm
0.5-1 mm
0.2-0.5 mm
0.1-0.2 mm
Sneeuwval
Natte sneeuw
Hagel
Vorst
30+ mm
25-30 mm
20-25 mm
15-20 mm
10-15 mm
6-10 mm
4-6 mm
2-4 mm
1-2 mm
0.5-1 mm
0.2-0.5 mm
0.1-0.2 mm
Sneeuwval
Natte sneeuw
Hagel
Vorst
Onweer
50 mm
40 mm
30 mm
26 mm
22 mm
18 mm
14 mm
10 mm
9 mm
8 mm
7 mm
6 mm
5 mm
4.5 mm
4 mm
3.5 mm
3 mm
2.5 mm
2 mm
1.5 mm
1 mm
0.8 mm
0.6 mm
0.4 mm
0.2 mm
0.05 mm
35°
30°
25°
20°
15°
10°
-5°
-10°
-15°
-20°
-25°
-30°
-35°
33> m/s
29 m/s
25 m/s
21 m/s
17 m/s
14 m/s
11 m/s
8 m/s
5 m/s
3 m/s
0 m/s
2600 J/kg
2400 J/kg
2200 J/kg
2000 J/kg
1800 J/kg
1600 J/kg
1400 J/kg
1200 J/kg
1000 J/kg
800 J/kg
600 J/kg
400 J/kg
200 J/kg
70 dBZ
65 dBZ
60 dBZ
55 dBZ
50 dBZ
45 dBZ
40 dBZ
35 dBZ
30 dBZ
25 dBZ
20 dBZ
15 dBZ
10 dBZ
5 dBZ
-1 K
-2 K
-3 K
-4 K
-5 K
-6 K
-7 K
-8 K
-9 K
950 m²/s²
900 m²/s²
850 m²/s²
800 m²/s²
750 m²/s²
700 m²/s²
650 m²/s²
600 m²/s²
550 m²/s²
500 m²/s²
450 m²/s²
400 m²/s²
350 m²/s²
300 m²/s²
250 m²/s²
200 m²/s²
150 m²/s²
100 m²/s²
46 m/s
44 m/s
42 m/s
40 m/s
38 m/s
36 m/s
34 m/s
32 m/s
30 m/s
28 m/s
26 m/s
24 m/s
22 m/s
20 m/s
16 m/s
12 m/s
8 m/s
4 m/s
30 m/s
28 m/s
26 m/s
24 m/s
22 m/s
20 m/s
18 m/s
16 m/s
14 m/s
12 m/s
10 m/s
8 m/s
6 m/s
4 m/s
2 m/s
3.0
2.8
2.6
2.4
2.2
2.0
1.8
1.6
1.4
1.2
1.0
0.8
0.6
0.4
0.2
15
14
13
12
11
10
9
8
7
6
5
4
3
2
1
90%
80%
70%
60%
50%
40%
30%
20%
10%
42
40
38
36
34
32
30
28
26
24
22
20
18
16
14
12
90+ cm
80-90 cm
70-80 cm
60-70 cm
50-60 cm
40-50 cm
30-40 cm
20-30 cm
10-20 cm
1-10 cm
Sneeuwval
Natte sneeuw
Regen
>120 mm
115 mm
110 mm
105 mm
100 mm
95 mm
90 mm
85 mm
80 mm
75 mm
70 mm
65 mm
60 mm
55 mm
50 mm
45 mm
45 mm
40 mm
35 mm
30 mm
25 mm
20 mm
15 mm
10 mm
5 mm
0.1 mm
960 hPa
880 hPa
800 hPa
720 hPa
640 hPa
560 hPa
584 gpdm
568 gpdm
552 gpdm
536 gpdm
520 gpdm
504 gpdm
488 gpdm
Extreem zwaar Noodweer Kans op onweer
15% 15% 5% 50% 15%

Dag




Kaart